Theta_e
312 311 305 304 300 297 294 292 291 289 289 288 288 287 286 286 286 285 286 286 286 285 286 286 285 286 285 285 285 285 284 283 280 282 284 284 283 283 283 284 284 283 282
309 302 299 296 295 293 292 291 290 289 289 288 287 286 285 286 286 286 286 286 285 284 285 285 284 284 284 284 284 283 283 283 281 279 281 282 282 283 283 282 282 283 281
299 296 294 293 293 292 290 290 289 288 287 286 286 285 286 286 286 286 286 285 285 285 285 284 284 283 283 283 283 282 282 282 281 280 279 281 282 282 281 281 281 281 281
295 294 292 292 291 290 289 289 288 287 286 286 287 287 286 286 286 286 285 285 285 285 285 284 284 283 283 283 282 281 281 280 280 279 279 280 281 282 281 279 278 279 278
293 292 290 290 289 288 287 287 287 287 287 287 287 286 286 286 286 285 285 284 284 283 283 283 283 283 284 284 281 281 281 280 280 279 279 280 280 279 278 278 276 276 276
291 289 289 288 287 287 286 285 285 286 286 287 286 286 285 286 287 287 285 283 283 282 281 282 282 283 282 283 283 283 283 281 280 280 279 279 279 279 279 277 275 273 270
288 287 287 287 286 286 285 285 285 285 286 285 285 285 285 284 287 287 286 282 282 281 281 281 281 280 282 281 283 284 284 284 284 281 279 279 278 279 276 274 274 272 271
287 286 286 286 286 286 286 286 285 285 285 285 285 284 283 282 287 287 286 282 282 282 282 281 281 281 281 281 281 280 280 280 281 280 280 280 280 278 277 275 273 271 271
286 286 286 286 286 286 285 285 286 285 285 284 283 283 282 281 287 287 286 283 282 282 282 282 282 282 284 284 281 280 280 280 282 282 282 280 279 276 274 272 269 268 266
286 285 287 287 286 285 285 285 285 285 284 283 282 283 283 282 286 287 286 283 282 282 282 282 283 282 284 284 281 280 279 280 280 278 278 276 274 272 271 270 269 265 265
285 285 286 287 285 285 284 284 284 283 281 281 281 281 281 282 283 286 287 283 283 282 282 282 282 284 285 285 285 281 280 281 280 279 276 275 272 271 270 270 269 267 264
285 285 284 284 284 284 284 282 282 282 281 280 281 280 281 281 282 285 286 287 285 283 283 283 283 285 284 285 284 285 284 284 279 276 274 273 272 271 270 269 268 267 267
285 284 284 284 284 284 283 282 282 282 282 281 281 281 281 281 281 284 285 286 286 285 284 285 285 285 284 284 284 284 282 278 275 274 273 272 271 270 267 265 265 265 264
284 282 282 282 282 283 283 283 283 283 282 282 281 282 282 281 281 281 281 283 283 284 284 283 284 284 284 283 281 282 281 276 274 273 272 272 269 266 264 265 263 263 262
281 280 282 282 282 282 282 283 283 283 285 284 284 284 283 282 283 284 284 282 283 283 279 279 279 279 280 280 278 279 276 274 271 271 271 269 267 266 265 264 262 260 259
280 281 282 282 282 282 282 281 282 283 284 285 285 286 284 285 284 284 285 285 284 283 276 278 277 278 278 278 276 276 274 272 272 271 270 269 267 266 265 264 262 260 259
282 281 281 281 282 282 281 282 282 281 283 284 284 285 285 284 283 284 284 284 284 282 277 279 279 278 278 277 277 276 275 273 272 271 270 269 267 265 263 261 261 261 259
283 280 283 283 283 283 283 283 283 284 283 283 284 284 285 285 286 285 284 284 282 283 282 280 279 280 280 278 277 276 276 275 272 271 269 268 266 264 262 261 261 259 259
283 283 283 284 283 282 283 283 283 283 283 283 283 280 280 284 286 286 286 283 282 281 282 282 283 283 283 281 280 279 277 276 273 270 269 267 265 263 261 261 261 260 259
281 278 280 283 282 281 282 282 282 282 282 282 283 283 281 278 279 280 282 284 283 283 283 283 284 284 283 282 280 279 278 276 273 269 267 266 264 262 261 260 260 259 258
283 280 277 282 282 282 282 281 281 281 281 281 283 282 281 278 279 281 281 281 282 282 282 282 281 280 279 279 278 277 275 273 270 268 266 264 263 260 260 260 260 259 258
283 282 280 281 281 280 281 281 281 281 280 280 281 281 280 276 278 279 279 279 279 278 277 277 277 277 276 276 276 274 272 270 269 266 265 263 262 260 259 258 258 258 257
282 282 281 280 281 275 278 279 279 279 279 279 278 277 277 277 277 277 277 276 275 275 274 273 273 272 273 271 270 271 270 268 268 266 264 262 260 259 258 258 257 257 257
281 281 281 280 278 278 278 278 278 273 273 275 276 275 274 274 274 274 273 273 272 271 271 270 268 267 268 266 267 267 267 267 267 265 264 262 260 259 259 258 258 257 257
278 278 277 277 277 276 276 276 275 274 274 274 273 273 272 272 272 272 272 271 269 268 267 265 263 263 263 262 263 264 264 266 263 263 262 261 260 260 258 258 257 257 257
276 275 275 275 274 274 274 273 272 272 271 271 271 270 270 269 268 268 267 266 265 264 265 264 262 262 261 263 263 264 264 264 261 260 260 259 258 258 258 257 256 256 256
Wind_Speed
19 18 15 13 17 18 16 18 19 20 19 18 18 16 16 12 11 12 10 8 10 7 6 6 5 5 3 3 2 2 1 1 2 2 1 2 3 5 5 4 5 6 5
16 19 18 16 17 17 19 19 20 20 19 19 18 17 16 12 11 12 12 8 9 9 7 6 6 5 4 4 2 3 3 2 1 6 4 4 4 4 5 6 5 5 6
18 19 20 18 15 17 20 21 22 20 18 17 17 18 15 13 10 10 10 9 9 8 8 7 7 6 5 4 4 3 2 3 3 4 5 4 5 4 4 3 6 5 5
18 19 19 19 18 17 18 21 22 20 20 18 15 16 14 13 10 10 11 10 8 7 8 7 6 7 6 5 4 5 4 3 4 5 6 6 5 4 1 4 5 5 7
18 17 19 18 18 19 18 18 20 19 18 17 14 13 12 11 9 11 9 9 9 7 6 5 4 4 8 7 4 4 5 5 4 5 6 6 5 3 4 3 5 6 7
18 19 19 19 19 19 19 18 16 19 17 15 13 13 12 8 17 16 11 8 8 6 6 5 6 7 6 11 12 12 9 6 6 6 6 7 6 4 2 4 4 6 5
17 18 19 20 19 18 19 18 18 18 15 14 12 11 10 8 17 16 13 6 7 6 6 7 5 4 7 7 12 14 14 14 15 8 9 7 6 3 1 5 6 6 7
16 18 18 19 19 18 18 17 15 14 14 13 11 9 9 7 17 16 14 6 5 6 5 6 6 8 8 7 7 7 8 7 7 6 7 6 4 0 4 4 5 7 7
15 17 17 19 19 18 16 15 13 14 11 9 8 9 8 6 16 16 13 7 5 5 5 7 8 7 8 13 7 7 7 7 7 11 8 4 4 4 3 3 4 4 5
13 14 15 16 16 15 14 14 10 11 10 7 7 6 7 7 14 15 12 3 4 3 4 7 11 7 10 12 9 8 9 7 5 5 4 5 5 5 4 4 2 3 3
14 14 15 15 14 12 12 10 10 9 9 7 7 5 5 5 8 14 14 5 5 4 5 4 4 11 13 16 16 8 9 4 6 6 6 4 4 5 4 5 5 4 4
14 14 14 13 9 9 12 9 9 9 8 6 5 4 2 4 6 11 14 15 9 5 4 3 3 7 11 13 12 16 17 14 3 3 4 5 5 4 4 4 4 5 6
12 12 11 11 9 9 10 9 7 6 6 6 4 4 3 3 3 11 12 14 12 8 4 5 8 9 12 12 14 15 9 4 4 5 6 5 4 2 2 0 4 6 8
11 10 8 9 8 6 5 5 6 5 4 4 4 3 2 2 2 3 4 5 9 7 6 5 6 9 12 9 4 8 4 6 6 6 5 3 3 2 4 4 3 3 5
8 6 6 6 6 5 3 3 3 2 3 5 4 3 4 4 4 7 7 5 4 5 2 1 3 4 4 4 3 6 4 4 5 5 5 4 5 5 5 4 3 2 5
6 4 4 4 4 3 4 2 0 2 4 2 4 4 1 4 1 3 10 10 7 8 1 4 3 4 6 7 7 7 6 7 7 7 7 6 6 6 5 4 4 4 6
5 5 4 4 3 4 2 2 2 3 6 6 9 10 9 6 3 7 8 8 9 10 4 4 5 6 7 8 8 8 9 9 8 8 8 7 6 6 5 5 5 6 6
4 5 4 3 3 3 3 3 2 3 2 2 10 10 9 12 13 12 11 7 6 11 8 7 8 9 10 8 8 9 8 8 8 8 8 7 7 6 6 6 6 6 6
3 3 3 3 3 3 3 3 2 2 2 1 2 2 5 11 14 12 11 7 8 8 8 9 11 10 10 8 8 8 9 8 8 7 8 7 7 7 7 6 6 7 5
2 4 2 2 3 2 2 3 3 3 3 3 3 3 3 2 2 2 5 8 9 10 10 10 10 9 9 8 7 7 7 7 7 7 7 7 7 7 6 6 6 6 6
2 3 2 2 2 2 2 2 0 0 3 2 3 2 2 2 3 4 5 7 8 8 8 7 6 5 5 6 6 7 7 7 7 7 7 7 7 7 6 5 5 5 6
2 2 3 2 2 2 1 1 2 3 3 2 3 3 3 2 5 6 5 5 4 3 2 3 5 5 5 6 6 6 7 7 6 6 6 6 6 6 6 6 5 6 5
1 2 3 3 2 3 3 2 1 1 3 4 3 2 1 3 4 4 4 3 2 2 2 2 4 5 5 3 3 5 6 6 6 6 6 6 6 6 6 5 6 5 6
4 3 3 3 3 3 4 4 4 4 3 3 3 2 2 2 3 3 3 3 2 3 2 2 2 6 6 3 2 2 3 2 2 4 6 5 5 6 5 5 5 6 5
5 5 5 4 4 4 3 3 3 2 2 1 2 2 2 3 3 4 4 5 4 5 5 3 2 5 6 5 5 4 2 4 3 4 4 4 5 7 5 4 5 5 6
4 4 4 3 3 3 3 3 3 2 3 3 3 3 4 5 5 5 5 6 6 6 6 3 4 6 6 5 4 3 4 5 5 5 4 3 4 4 4 5 7 6 7
Wind_Direction
168 165 145 156 142 142 141 137 136 134 139 133 133 126 118 120 118 120 112 106 103 119 149 145 151 162 142 142 163 171 193 134 267 321 49 239 247 271 280 299 311 304 311
158 138 131 135 139 140 138 137 137 140 133 134 132 125 123 131 127 125 131 145 141 166 148 157 165 168 163 177 184 196 191 170 216 275 296 295 276 286 286 294 301 303 305
134 133 134 134 141 140 137 137 140 132 130 132 133 129 133 138 137 142 133 153 167 155 162 177 174 173 180 190 199 195 173 219 229 243 265 283 278 270 284 306 297 286 304
135 135 137 138 140 138 137 136 131 138 135 131 138 135 143 142 142 144 160 163 153 167 171 179 176 183 194 197 187 199 207 214 226 247 261 269 268 262 214 279 299 315 307
133 134 130 128 130 128 129 131 131 128 131 124 134 141 140 141 157 162 162 156 165 167 168 176 183 185 204 203 185 195 200 215 229 245 258 264 270 284 289 314 290 302 302
127 124 127 125 130 129 127 126 128 128 129 138 141 143 147 157 166 165 156 159 166 165 168 169 195 201 208 218 219 226 223 211 229 243 254 256 266 280 278 280 296 296 307
119 123 125 129 130 129 127 128 129 132 139 137 140 148 150 153 168 171 167 155 164 166 182 189 191 200 208 215 227 234 239 241 240 246 254 259 276 287 41 275 276 290 279
117 120 122 126 125 124 126 127 135 135 138 137 147 154 146 159 171 177 173 159 175 182 184 185 200 209 203 209 219 229 232 232 237 245 253 259 267 185 234 259 290 292 281
118 123 125 126 124 127 126 130 135 127 132 141 148 144 145 144 178 179 175 186 185 193 196 206 216 215 214 218 224 240 249 248 236 246 259 281 186 181 248 295 271 290 298
107 109 114 117 116 121 125 126 124 128 134 134 126 137 150 153 181 186 185 154 199 210 209 221 221 228 227 227 224 232 245 242 217 185 191 211 198 208 220 230 253 247 278
93 97 102 103 102 106 113 120 124 120 113 117 136 140 147 156 178 191 193 183 205 218 223 224 215 234 242 246 235 227 242 239 238 209 199 202 200 204 206 204 224 235 238
86 88 89 95 106 114 114 100 103 119 127 134 137 140 143 160 179 198 204 215 212 211 236 245 235 249 252 256 250 243 249 253 167 191 226 224 225 220 204 195 220 240 252
97 101 101 100 97 105 118 127 126 126 148 162 159 158 165 167 189 211 215 223 231 239 226 236 253 259 268 262 256 257 254 165 182 217 231 234 211 146 76 45 228 239 250
85 80 89 104 107 111 120 130 134 151 149 138 160 170 142 146 180 192 197 220 234 243 245 249 242 247 254 253 235 250 205 181 198 219 230 216 117 160 212 220 223 246 271
99 109 106 110 118 112 87 135 142 134 151 166 172 154 166 214 222 202 190 191 189 202 155 130 224 225 247 238 220 237 176 180 202 218 227 219 207 214 226 210 218 230 240
105 94 102 115 107 111 121 108 11 73 184 164 119 154 179 239 300 232 221 216 210 192 165 213 226 226 231 237 222 225 216 212 214 215 218 217 220 217 221 213 207 224 249
131 131 130 123 119 135 149 157 146 181 223 221 226 226 227 239 289 247 231 209 190 188 225 230 238 239 237 232 228 221 227 216 208 216 217 213 209 214 204 224 228 230 245
103 107 121 128 155 163 164 153 169 190 183 189 218 225 233 237 239 230 222 213 224 227 233 230 233 242 244 232 225 225 225 221 202 205 211 210 202 202 203 215 222 230 242
126 148 144 142 140 147 154 165 164 184 221 212 102 166 229 235 233 227 226 226 235 240 240 244 248 250 250 233 235 229 223 222 205 202 206 202 196 194 212 219 225 233 241
105 96 139 157 151 173 173 178 190 194 214 220 217 213 154 172 176 195 226 237 243 248 249 250 253 255 257 253 248 243 235 223 208 201 200 196 191 192 208 209 214 226 226
143 138 151 192 150 169 179 181 67 215 238 230 239 158 27 34 320 276 253 240 243 249 255 259 263 264 259 254 253 244 235 226 209 202 200 193 184 194 200 212 217 225 238
117 136 157 166 142 158 148 117 201 226 225 227 25 34 346 304 263 250 247 255 257 263 268 276 276 269 258 252 249 244 240 229 214 198 194 188 182 188 191 200 212 224 232
161 164 154 145 141 124 183 192 196 301 18 25 13 350 319 270 278 290 302 300 284 275 280 268 273 276 273 262 263 258 248 234 222 191 189 181 182 186 189 204 213 223 227
161 130 94 87 74 56 42 31 33 38 11 351 340 333 317 294 290 297 294 299 314 309 303 301 284 283 293 286 270 260 269 280 177 182 174 176 179 184 196 205 216 229 239
58 57 49 52 55 55 65 55 48 42 28 32 4 340 335 332 333 336 343 346 341 329 327 323 300 307 303 281 261 259 244 229 145 149 158 169 185 189 194 213 226 235 239
64 73 74 74 78 77 85 96 86 67 49 34 24 17 6 2 354 348 351 347 344 333 328 326 315 318 305 295 285 255 220 196 168 180 162 176 193 210 214 222 232 238 246